Location: Montebello
(37.3256°N, 122.1789°W)
Time: 03:28:30
(UTC-08:00)

N. Korean satellite - Visible Passes

Search period start: 21 February 2018 00:00
Search period end: 03 March 2018 00:00
Orbit: 459 x 514 km, 97.2° (Epoch: 21 February)

Date Brightness Start Highest point End Pass type
(mag) Time Alt. Az. Time Alt. Az. Time Alt. Az.
21 Feb 9.9 18:56:35 10° SW 18:58:54 17° W 19:01:14 10° NW visible
22 Feb 8.4 18:31:52 10° SSW 18:35:02 35° W 18:38:16 10° NNW visible
23 Feb 9.9 06:01:08 10° NE 06:03:55 20° E 06:06:42 10° SE visible
25 Feb 9.8 18:54:57 10° SW 18:57:21 18° W 18:59:48 10° NW visible
26 Feb 8.3 18:30:16 10° SSW 18:33:29 36° W 18:36:47 10° NNW visible
27 Feb 9.9 05:59:39 10° NE 06:02:24 19° E 06:05:09 10° SE visible
01 Mar 9.8 18:53:16 10° SW 18:55:46 19° W 18:58:19 10° NW visible
02 Mar 8.3 18:28:37 10° SSW 18:31:54 38° W 18:35:14 10° NNW visible
